Location: St. Louis
(38.6270°N, 90.1994°W)
Time: 08:00:15
(UTC-06:00)

Transit 4A - Pass Details

Date: 08 December 2021
Orbit: 864 x 981 km, 66.8° (Epoch: 19 January)

Event Time Altitude Azimuth Distance (km) Brightness Sun altitude
Rises 16:19:21 0° 154° (SSE) 3,440 11.0 2.5°
Reaches altitude 10° 16:23:14 10° 128° (SE) 2,523 10.0 1.9°
Maximum altitude 16:25:49 13° 102° (ESE) 2,317 9.6 1.5°
Drops below altitude 10° 16:28:25 10° 75° (ENE) 2,558 9.6 1.0°
Sets 16:32:23 0° 50° (NE) 3,530 10.3 0.3°
